#timestamp,LO_Frequency,Hit,StdDev 
1655964015.9,286047000.8,N
1655964035.7,286047001.2,N
1655964055.5,286046999.8,N
1655964075.4,286047001.0,N
1655964095.2,286047001.0,N
1655964115.0,286046999.9,N
1655964115.9,286046999.9,N
1655964135.8,286046999.9,N
1655964155.6,286047000.3,N
1655964175.5,286047001.6,N
1655964195.3,286047002.3,N
1655964215.1,286047000.3,N
1655964235.9,286046998.1,N
1655964255.7,286046999.0,N
1655964275.6,286046999.6,N
1655964295.4,286046999.4,N
1655964315.2,286046999.5,N
1655964335.1,286046998.7,N
1655964336.0,286046998.7,N
1655964355.8,286046998.4,N
1655964375.7,286046999.6,N
1655964395.5,286046999.4,N
1655964415.3,286046999.0,N
1655964435.2,286046997.0,N
1655964455.0,286046999.5,N
1655964455.9,286046999.5,N
1655964475.8,286046999.1,N
1655964495.6,286046999.6,N
1655964515.4,286046998.5,N
1655964535.3,286046999.0,N
1655964555.1,286046999.1,N
1655964575.8,286046999.6,N
1655964595.7,286046999.4,N
1655964615.5,286046996.8,Y
1655964635.4,286047000.5,P
1655964655.2,286047000.5,N
1655964675.0,286046996.5,P
1655964675.9,286046996.5,N
1655964695.8,286046997.8,N
1655964715.6,286046996.7,N
1655964735.4,286046997.2,N
1655964755.3,286046995.0,Y
1655964775.1,286046996.6,P
1655964795.9,286046996.8,P
1655964815.7,286046996.5,P
1655964835.5,286046999.6,N
1655964855.4,286046997.3,N
1655964875.2,286046996.8,N
1655964895.1,286046998.4,N
1655964896.0,286046998.4,N
1655964915.8,286047000.8,N
1655964935.6,286046998.6,N
1655964955.5,286047000.7,N
1655964975.3,286047000.6,N
1655964995.2,286047000.6,N
1655965015.9,286047000.0,N
1655965035.7,286047002.8,N
1655965055.6,286047000.2,N
1655965075.4,286047000.9,N
1655965095.3,286046999.7,N
1655965115.1,286046999.9,N
1655965116.0,286046999.9,N
1655965135.8,286047000.7,N
1655965155.7,286046998.2,N
1655965175.5,286047001.0,N
1655965195.3,286047000.1,N
1655965215.2,286047001.0,N
1655965235.0,286047002.6,N
1655965235.9,286047002.6,N
1655965255.8,286047002.6,N
1655965275.6,286046999.9,N
1655965295.4,286047000.5,N
1655965315.3,286047000.9,N
1655965335.1,286047000.0,N
1655965355.8,286047001.0,N
1655965375.7,286047000.5,N
1655965395.5,286046999.8,N
1655965415.4,286047002.5,N
1655965435.2,286047001.9,N
1655965455.0,286047001.3,N
1655965455.9,286047001.3,N
1655965475.8,286047004.0,Y
1655965495.6,286047001.4,P
1655965515.4,286047001.9,P
1655965535.3,286047002.4,P
1655965555.1,286046999.8,N
1655965575.9,286047002.0,N
1655965595.7,286047001.6,N
1655965615.5,286047001.7,N
1655965635.4,286047003.9,Y
1655965655.2,286047002.3,P
1655965675.0,286047002.5,P
1655965676.0,286047002.5,P
1655965695.8,286047002.7,Y
1655965715.6,286046998.7,P
1655965735.5,286046998.2,N
1655965755.3,286046998.1,N
1655965775.2,286047001.1,N
1655965795.9,286046998.6,N
1655965815.7,286046998.5,N
1655965835.6,286047001.1,N
1655965855.4,286047001.1,N
1655965875.2,286046998.7,N
1655965895.1,286046998.6,N
1655965896.0,286046998.6,N
1655965945.8,286046998.8,E
1655965955.8,286046998.6,N
1655965975.6,286046998.1,P
1655965995.4,286046998.7,P
1655966015.3,286047000.7,N
1655966035.1,286047000.5,N
1655966055.8,286047000.0,N
1655966075.7,286047000.0,N
1655966095.5,286047000.5,N
1655966115.4,286047000.5,N
1655966135.2,286047000.6,N
1655966155.0,286046998.1,N
1655966155.9,286046998.1,N
1655966175.8,286047000.3,N
1655966195.6,286046999.7,N
1655966215.5,286046999.8,N
1655966235.3,286047002.8,N
1655966255.1,286047000.1,N
1655966275.9,286046999.7,N
1655966295.7,286046999.7,N
1655966315.5,286047002.8,N
1655966335.4,286047002.3,N
1655966355.2,286047002.7,N
1655966375.1,286047002.0,N
1655966376.0,286047002.0,N
1655966395.8,286047001.5,N
1655966415.6,286047002.2,N
1655966435.5,286047002.7,N
1655966455.3,286047002.4,N
1655966475.1,286047002.8,N
1655966495.9,286047001.9,N
1655966515.7,286047002.7,N
1655966535.6,286046999.7,N
1655966555.4,286046999.8,N
1655966575.2,286047000.1,N
1655966595.1,286047000.4,N
1655966596.0,286047000.4,N
1655966615.8,286047000.2,N
1655966635.7,286047000.1,N
1655966655.5,286047001.0,N
1655966675.3,286047000.1,N
1655966695.2,286047000.2,N
1655966715.0,286047002.8,N
1655966715.9,286047002.8,N
1655966735.8,286047000.3,N
1655966755.6,286047002.5,N
1655966775.4,286047002.8,N
1655966795.3,286047002.7,N
1655966815.1,286047002.1,N
1655966835.9,286047002.1,N
1655966855.7,286047003.9,Y
1655966875.5,286047002.5,P
1655966895.4,286046999.7,N
1655966915.2,286047002.7,N
1655966935.0,286047000.0,N
1655966936.0,286047000.0,N
1655966955.8,286047000.8,N
1655966975.6,286046999.9,N
1655966995.5,286047000.5,N
1655967015.3,286047002.2,N
1655967035.1,286047002.6,N
1655967055.9,286046999.9,N
1655967075.7,286047002.4,N
1655967095.6,286047002.7,N
1655967115.4,286046999.7,N
1655967135.2,286046999.9,N
1655967155.1,286047000.0,N
1655967156.0,286047000.0,N
1655967175.8,286047000.6,N
1655967195.6,286047000.3,N
1655967215.5,286047000.0,N
1655967235.3,286046999.9,N
1655967255.2,286047000.4,N
1655967275.9,286047000.5,N
1655967295.7,286047000.8,N
1655967315.6,286047000.5,N
1655967335.4,286047001.1,N
1655967355.2,286047000.7,N
1655967375.1,286046998.1,N
1655967376.0,286046998.1,N
1655967395.8,286047000.6,N
1655967415.7,286047000.6,N
1655967435.5,286046999.7,N
1655967455.3,286047001.0,N
1655967475.2,286047000.4,N
1655967495.0,286046998.1,N
1655967495.9,286046998.1,N
1655967515.7,286046998.5,N
1655967535.9,286047000.9,N
1655967555.7,286047001.1,N
1655967575.6,286047000.9,N
1655967595.4,286047000.2,N
